SL-4 R/B

Last updated on Wed Oct 29 2025 00:02:15 GMT+0000 (Coordinated Universal Time)

1 39679U 14021B 25301.19737633 .00019664 00000+0 48575-3 0 9999 2 39679 51.6075 261.6455 0105374 342.0626 17.6648 15.34903789635894

Satellite not in orbit